IUS DEB, 26076

Orbit data source: Space-Track

IUS DEB, 26076 is space debris originally from a launch on Fri, 23 Jul 1999 UTC launched from the Air Force Eastern Test Range (AFETR). Debris objects in space refer to the collection of defunct objects orbiting the Earth. Examples of debris include non-operational satellites, rocket bodies, and fragments generated from explosions, collisions, or faulty payload assembly.

Loading next visibility...
IUS DEB details
Identifier
26076, 1999-040E
Orbit
Active
Last TLE update1 day ago
Origin
Flag of USGSFC (US)
ManufacturerBoeing/Kent
MissionSpacecraft
Bus & MotorUnknown
MassUnknown
Launch date (UTC)
1999-07-23 (25 years ago)
Launch vehicleUnknown
Launch site
Air Force Eastern Test Range (AFETR)
Object type
Payload
Rocket body
Debris
Shape & HBRUnknown
Radar Cross SectionSmall (<0.1 m²)

Expand to show TLE details & history

TLE from 1 day ago
0 IUS DEB
1 26076U 99040E   24360.08095084  .00004317  00000-0  93039-3 0  9994
2 26076  28.4308 283.4746 4357988 115.0284 295.9130  6.67756875491951
Epoch: 2024-12-25T01:56Z
Definitive object data (Epoch: 2024-12-25T01:56:34.152Z)
Latitude-0.00002°
Longitude160.25244°
Altitude5,447.313 km
Speed5.828 km/s
True Right ascension18h 53m 53s
True Declination0° 00' 00"
Sunlit
Object was in daylight at TLE epoch
Visualization TLE readout
Latitude7.53301°
Longitude172.30581°
Altitude4,263.525 km
Speed6.439 km/s
Apparent Right ascension20h 20m 54s
Apparent Declination-10° 09' 31"
Sunlit
Object is in daylight
Visualization observer readout
Local Sidereal Time09:46:00
Azimuth38.237° NE
Elevation-54.754°
Doppler factor1
Orbital elements
Apogee altitude10,730.108 km
Perigee altitude344.596 km
Semi-major axis11,915.489 km
Eccentricity0.4357988
Inclination28.4308°
RAAN283.4746°
Arg. of periapsis115.0284°
True anomaly245.01927°
Mean anomaly295.913°
Eccentric anomaly270.94698°
Mean motion1.66869 °/min
BSTAR0.00093039
Orbital period215.74 mins
Loading maneuver chart data...
Loading historical data...
Loading historical data...
Loading historical data...
Loading historical data...
Loading historical data...
Loading historical data...
Loading historical data...

IUS DEB Visibility forecast

Observer location: undefined°, undefined

Span
Click to sort rows by Start time (UTC) header in descending order
Start Az.
Max El. time (UTC)
Max El. Az.
Max El.
End time (UTC)
End Az.
38 mins2024-12-26 16:50:50.044Z175.115° S2024-12-26 17:13:50.044Z155.645° SSE12.975°2024-12-26 17:28:50.044Z134.253° SE
31 mins2024-12-26 20:57:50.044Z218.894° SW2024-12-26 21:20:50.044Z172.06° S25.761°2024-12-26 21:28:50.044Z118.02° SE
6 mins2024-12-27 01:06:50.044Z237.271° WSW2024-12-27 01:10:50.044Z193.083° SSW19.939°2024-12-27 01:12:50.044Z153.444° SSE
|